[[{"header":{"parameterUnit":"m.s-1","parameterCategory":1,"la1":30.2992,"la2":30.254,"lo1":-89.0895,"lo2":-89.0443,"dy":0.0025,"dx":0.0025,"nx":19,"ny":19,"refTime":"2026-04-27T21:00:00:Z","depth":0,"parameterNumber":2,"parameterNumberName":"U-component_of_WINDS"},"data":[0,0,0,-3.3675,-3.3677,-3.3743,-3.3743,-3.3832,-3.3833,0,0,0,0,0,0,0,0,0,0,0,-3.3659,-3.366,-3.3675,-3.3677,-3.3743,-3.3743,-3.3832,-3.3833,0,0,0,0,0,0,0,0,0,0,0,-3.3659,-3.3659,-3.366,-3.3677,-3.3743,-3.3743,-3.3832,-3.378,0,0,0,0,0,0,0,0,0,0,-3.3716,-3.3704,-3.3659,-3.366,-3.3678,-3.3743,-3.3743,-3.3778,-3.3784,-3.3805,0,-3.3825,0,-3.383,-3.384,-3.384,0,0,0,-3.3674,-3.3699,-3.3714,-3.3661,-3.3678,-3.3743,-3.3712,-3.3781,-3.3788,-3.3813,-3.3826,-3.3829,-3.3832,-3.384,-3.3841,-3.3971,-3.3972,0,0,-3.3671,-3.3672,-3.3709,-3.3718,-3.3708,-3.371,-3.3714,-3.3785,-3.3799,-3.3826,-3.3831,-3.3833,-3.3841,-3.3842,-3.397,-3.3971,0,0,0,-3.3662,-3.367,-3.3683,-3.3715,-3.3726,-3.3712,-3.3717,-3.3796,-3.38,-3.3832,-3.3834,-3.3841,-3.3843,-3.3969,-3.397,-3.4007,0,0,0,-3.366,-3.3665,-3.3682,-3.3683,-3.3725,-3.3762,-3.3727,-3.3795,-3.3803,-3.3834,-3.3841,-3.3843,-3.3969,-3.397,-3.4004,-3.4023,0,0,0,-3.3654,-3.3664,-3.3675,-3.3683,-3.3712,-3.3761,-3.3769,-3.3797,-3.3805,-3.384,-3.3844,-3.3968,-3.397,-3.4001,-3.4019,-3.4056,0,0,0,-3.3647,-3.3706,-3.3675,-3.3742,-3.3711,-3.3783,-3.3768,-3.3822,-3.3857,-3.3842,-3.3969,-3.397,-3.4001,-3.4016,-3.4054,-3.4087,-3.4101,0,0,-3.3722,-3.3715,-3.3755,-3.3729,-3.3807,-3.3773,-3.3857,-3.3887,-3.3889,-3.3943,-3.3947,-3.4005,-3.4018,-3.4056,-3.4185,-3.4196,0,0,0,-3.3779,-3.3807,-3.3828,-3.386,-3.3885,-3.3908,-3.3925,-3.3936,-3.3982,-3.3917,-3.403,-3.4038,-3.4059,-3.4075,-3.4085,-3.4103,-3.3978,-3.3978,-3.3978,-3.3886,-3.3886,-3.3951,-3.3959,-3.3991,-3.4009,-3.4035,-3.4053,-3.4043,-3.407,-3.4085,-3.4164,-3.4182,-3.4189,-3.4208,-3.4105,-3.4105,-3.4105,-3.4105,-3.3995,-3.4034,-3.4021,-3.4078,-3.4078,-3.4127,-3.4147,-3.4138,-3.4183,-3.4152,-3.4171,-3.4135,-3.4202,-3.4218,-3.4108,-3.4107,-3.4107,-3.4107,-3.4106,-3.4063,-3.4081,-3.4095,-3.4142,-3.4179,-3.4186,-3.423,-3.4229,-3.4228,-3.4247,-3.4262,-3.4261,-3.4259,-3.4255,-3.4255,-3.4255,-3.4256,-3.4256,-3.4256,-3.4128,-3.4142,-3.4178,-3.421,-3.4231,-3.4259,-3.4278,-3.4299,-3.4321,-3.4317,-3.4317,-3.4304,-3.4209,-3.4184,-3.426,-3.4259,-3.4259,-3.4258,-3.4258,-3.4234,-3.421,-3.4267,-3.4288,-3.4325,-3.4361,-3.436,-3.4402,-3.4419,-3.4441,-3.4425,-3.4356,-3.4348,-3.4341,-3.432,-3.4426,-3.4426,-3.4426,-3.4426,-3.429,-3.4287,-3.4344,-3.4378,-3.4411,-3.4416,-3.448,-3.4496,-3.4509,-3.4519,-3.4505,-3.4478,-3.447,-3.4467,-3.4456,-3.4436,-3.457,-3.457,-3.457,-3.4354,-3.4354,-3.4409,-3.4421,-3.4451,-3.4476,-3.4536,-3.4575,-3.4585,-3.4576,-3.4527,-3.4521,-3.4478,-3.4464,-3.4451,-3.4435,-3.4399,0,0]},{"header":{"parameterUnit":"m.s-1","parameterCategory":1,"la1":30.2992,"la2":30.254,"lo1":-89.0895,"lo2":-89.0443,"dy":0.0025,"dx":0.0025,"nx":19,"ny":19,"refTime":"2026-04-27T21:00:00:Z","depth":0,"parameterNumber":3,"parameterNumberName":"V-component_of_WINDS"},"data":[0,0,0,4.0204,4.0204,4.0207,4.0207,4.021,4.021,0,0,0,0,0,0,0,0,0,0,0,4.0204,4.0204,4.0204,4.0204,4.0207,4.0207,4.021,4.021,0,0,0,0,0,0,0,0,0,0,0,4.0204,4.0204,4.0204,4.0204,4.0207,4.0207,4.021,4.0208,0,0,0,0,0,0,0,0,0,0,4.0205,4.0206,4.0204,4.0204,4.0204,4.0207,4.0207,4.0208,4.0208,4.0209,0,4.0211,0,4.0211,4.0211,4.0211,0,0,0,4.0204,4.0206,4.0206,4.0204,4.0205,4.0207,4.0206,4.0208,4.0208,4.021,4.0211,4.0211,4.0211,4.0211,4.0211,4.0222,4.0222,0,0,4.0203,4.0205,4.0206,4.0206,4.0207,4.0206,4.0206,4.0208,4.0209,4.0211,4.0211,4.0211,4.0211,4.0211,4.0222,4.0222,0,0,0,4.0204,4.0204,4.0205,4.0206,4.0207,4.0206,4.0206,4.0209,4.0209,4.0211,4.0211,4.0211,4.0211,4.0222,4.0222,4.0228,0,0,0,4.0203,4.0205,4.0205,4.0205,4.0207,4.0208,4.0207,4.0209,4.021,4.0211,4.0211,4.0211,4.0221,4.0222,4.0227,4.023,0,0,0,4.0204,4.0205,4.0205,4.0205,4.0207,4.0208,4.0208,4.0209,4.0209,4.0211,4.0211,4.0221,4.0222,4.0227,4.0229,4.0233,0,0,0,4.0204,4.0209,4.0205,4.0212,4.0207,4.0212,4.0208,4.0212,4.0214,4.0211,4.0221,4.0222,4.0227,4.0229,4.0233,4.0237,4.0239,0,0,4.0211,4.021,4.0214,4.0211,4.0217,4.0212,4.0219,4.0219,4.0217,4.022,4.022,4.0227,4.0229,4.0233,4.0249,4.0251,0,0,0,4.0217,4.0219,4.0221,4.0223,4.0224,4.0226,4.0225,4.0225,4.0227,4.0219,4.023,4.0231,4.0233,4.0235,4.0236,4.0238,4.0223,4.0223,4.0223,4.0228,4.0227,4.0233,4.0233,4.0236,4.0236,4.0237,4.0237,4.0235,4.0238,4.0238,4.0248,4.025,4.0251,4.0253,4.024,4.024,4.024,4.024,4.0239,4.0242,4.0241,4.0246,4.0245,4.0249,4.025,4.0248,4.0251,4.0247,4.0249,4.0244,4.0253,4.0254,4.0241,4.0241,4.0241,4.0241,4.0241,4.0245,4.0247,4.0248,4.0253,4.0256,4.0256,4.026,4.0259,4.0258,4.026,4.026,4.026,4.026,4.026,4.026,4.0261,4.0261,4.0261,4.0261,4.0252,4.0253,4.0257,4.026,4.0262,4.0265,4.0266,4.0268,4.0269,4.0268,4.0268,4.0265,4.0254,4.0251,4.0261,4.0261,4.0261,4.0261,4.0261,4.0262,4.026,4.0266,4.0269,4.0273,4.0276,4.0276,4.028,4.0281,4.0283,4.0281,4.0273,4.0271,4.027,4.0267,4.0281,4.0281,4.0281,4.0281,4.0268,4.0267,4.0274,4.0278,4.0282,4.0282,4.0289,4.029,4.0291,4.0292,4.029,4.0287,4.0286,4.0285,4.0283,4.0281,4.0298,4.0298,4.0298,4.0274,4.0274,4.028,4.0282,4.0286,4.0289,4.0295,4.03,4.03,4.0298,4.0293,4.0292,4.0287,4.0285,4.0282,4.028,4.0275,0,0]}]]